Tracking 18852 objects as of 24-Nov-2017
HD Live streaming from Space Station
objects crossing your sky now

FENGYUN 1C DEB

Track FENGYUN 1C DEB now!
10-day predictions


NORAD ID: 36237
Int'l Code: 1999-025DVN
Perigee: 652.2 km
Apogee: 734.3 km
Inclination: 98.9 °
Period: 98.5 minutes
Semi major axis: 7064 km
RCS: 0.0136 m2 (small)
Launch date: May 10, 1999
Source: People's Republic of China (PRC)
Launch site: Taiyaun Space Center, China (TSC)

Note: This is SATELLITE DEBRIS
aabbcc
Your satellite tracking list
Your tracking list is empty




NASA's NSSDC Master Catalog

Two Line Element Set (TLE):
1 36237U 99025DVN 17327.85184563  .00002925  00000-0  57825-3 0  9994
2 36237  98.9318 188.5971 0058127 166.4236 193.8543 14.62184807475630
Source of the keplerian elements: AFSPC